Time,TemperatureF,DewpointF,PressureIn,WindDirection,WindDirectionDegrees,WindSpeedMPH,WindSpeedGustMPH,Humidity,HourlyPrecipIn,Conditions,Clouds,dailyrainin,SolarRadiationWatts/m^2,SoftwareType,DateUTC
2013-04-21 00:01:00,40.7,23.5,30.30,NE,53,2.0,4.0,50,0.00,,,0.00,520,WeatherCatV1.14B232,2013-04-21 04:01:00,
2013-04-21 00:06:00,40.5,23.3,30.31,NE,52,5.0,6.0,50,0.00,,,0.00,520,WeatherCatV1.14B232,2013-04-21 04:06:00,
2013-04-21 00:10:00,57.9,30.4,30.00,NE,51,2.0,6.0,35,0.00,,,0.00,520,WeatherCatV1.14B232,2013-04-21 04:10:00,
2013-04-21 00:11:00,40.4,23.2,30.31,NE,53,3.0,4.0,50,0.00,,,0.00,520,WeatherCatV1.14B232,2013-04-21 04:11:00,
2013-04-21 00:15:00,40.3,23.2,30.31,NE,53,2.0,4.0,50,0.00,,,0.00,520,WeatherCatV1.14B232,2013-04-21 04:15:00,
2013-04-21 00:20:00,38.0,36.7,29.85,NE,45,0.0,1.0,95,0.00,,,0.00,520,WeatherCatV1.14B232,2013-04-21 04:20:00,
2013-04-21 00:25:00,38.0,36.7,29.85,NE,45,0.0,1.0,95,0.00,,,0.00,520,WeatherCatV1.14B232,2013-04-21 04:25:00,
2013-04-21 00:30:00,38.0,36.7,29.85,NE,45,0.0,1.0,95,0.00,,,0.00,520,WeatherCatV1.14B232,2013-04-21 04:30:00,
2013-04-21 00:35:00,38.0,36.7,29.85,NE,45,0.0,1.0,95,0.00,,,0.00,520,WeatherCatV1.14B232,2013-04-21 04:35:00,
2013-04-21 00:40:00,38.0,36.7,29.85,NE,45,0.0,1.0,95,0.00,,,0.00,520,WeatherCatV1.14B232,2013-04-21 04:40:00,
2013-04-21 00:45:00,38.0,36.7,29.85,NE,45,0.0,1.0,95,0.00,,,0.00,520,WeatherCatV1.14B232,2013-04-21 04:45:00,
2013-04-21 00:50:00,38.0,36.7,29.85,NE,45,0.0,1.0,95,0.00,,,0.00,520,WeatherCatV1.14B232,2013-04-21 04:50:00,
2013-04-21 00:55:00,38.0,36.7,29.85,NE,45,0.0,1.0,95,0.00,,,0.00,520,WeatherCatV1.14B232,2013-04-21 04:55:00,
2013-04-21 01:00:00,38.0,36.7,29.85,NE,45,0.0,1.0,95,0.00,,,0.00,520,WeatherCatV1.14B232,2013-04-21 05:00:00,
2013-04-21 01:05:00,38.0,36.7,29.85,NE,45,0.0,1.0,95,0.00,,,0.00,520,WeatherCatV1.14B232,2013-04-21 05:05:00,
2013-04-21 01:10:00,38.0,36.7,29.85,NE,45,0.0,1.0,95,0.00,,,0.00,520,WeatherCatV1.14B232,2013-04-21 05:10:00,
2013-04-21 01:15:00,38.0,36.7,29.85,NE,45,0.0,1.0,95,0.00,,,0.00,520,WeatherCatV1.14B232,2013-04-21 05:15:00,
2013-04-21 01:20:00,38.0,36.7,29.85,NE,45,0.0,1.0,95,0.00,,,0.00,520,WeatherCatV1.14B232,2013-04-21 05:20:00,
2013-04-21 01:25:00,38.0,36.7,29.85,NE,45,0.0,1.0,95,0.00,,,0.00,520,WeatherCatV1.14B232,2013-04-21 05:25:00,
2013-04-21 01:30:00,38.0,36.7,29.85,NE,45,0.0,1.0,95,0.00,,,0.00,520,WeatherCatV1.14B232,2013-04-21 05:30:00,
2013-04-21 01:35:00,38.0,36.7,29.85,NE,45,0.0,1.0,95,0.00,,,0.00,520,WeatherCatV1.14B232,2013-04-21 05:35:00,
2013-04-21 01:40:00,38.0,36.7,29.85,NE,45,0.0,1.0,95,0.00,,,0.00,520,WeatherCatV1.14B232,2013-04-21 05:40:00,
2013-04-21 01:45:00,38.0,36.7,29.85,NE,45,0.0,1.0,95,0.00,,,0.00,520,WeatherCatV1.14B232,2013-04-21 05:45:00,
2013-04-21 01:50:00,38.0,36.7,29.85,NE,45,0.0,1.0,95,0.00,,,0.00,520,WeatherCatV1.14B232,2013-04-21 05:50:00,
2013-04-21 01:55:00,38.0,36.7,29.85,NE,45,0.0,1.0,95,0.00,,,0.00,520,WeatherCatV1.14B232,2013-04-21 05:55:00,
2013-04-21 02:00:00,38.0,36.7,29.85,NE,45,0.0,1.0,95,0.00,,,0.00,520,WeatherCatV1.14B232,2013-04-21 06:00:00,
2013-04-21 02:05:00,38.0,36.7,29.85,NE,45,0.0,1.0,95,0.00,,,0.00,520,WeatherCatV1.14B232,2013-04-21 06:05:00,
2013-04-21 02:10:00,38.0,36.7,29.85,NE,45,0.0,1.0,95,0.00,,,0.00,520,WeatherCatV1.14B232,2013-04-21 06:10:00,
2013-04-21 02:15:00,38.0,36.7,29.85,NE,45,0.0,1.0,95,0.00,,,0.00,520,WeatherCatV1.14B232,2013-04-21 06:15:00,
2013-04-21 02:20:00,38.0,36.7,29.85,NE,45,0.0,1.0,95,0.00,,,0.00,520,WeatherCatV1.14B232,2013-04-21 06:20:00,
2013-04-21 02:25:00,38.0,36.7,29.85,NE,45,0.0,1.0,95,0.00,,,0.00,520,WeatherCatV1.14B232,2013-04-21 06:25:00,
2013-04-21 02:30:00,38.0,36.7,29.85,NE,45,0.0,1.0,95,0.00,,,0.00,520,WeatherCatV1.14B232,2013-04-21 06:30:00,
2013-04-21 02:35:00,38.0,36.7,29.85,NE,45,0.0,1.0,95,0.00,,,0.00,520,WeatherCatV1.14B232,2013-04-21 06:35:00,
2013-04-21 02:40:00,38.0,36.7,29.85,NE,45,0.0,1.0,95,0.00,,,0.00,520,WeatherCatV1.14B232,2013-04-21 06:40:00,
2013-04-21 02:45:00,38.0,36.7,29.85,NE,45,0.0,1.0,95,0.00,,,0.00,520,WeatherCatV1.14B232,2013-04-21 06:45:00,
2013-04-21 02:50:00,38.0,36.7,29.85,NE,45,0.0,1.0,95,0.00,,,0.00,520,WeatherCatV1.14B232,2013-04-21 06:50:00,
2013-04-21 02:55:00,38.0,36.7,29.85,NE,45,0.0,1.0,95,0.00,,,0.00,520,WeatherCatV1.14B232,2013-04-21 06:55:00,
2013-04-21 03:00:00,38.0,36.7,29.85,NE,45,0.0,1.0,95,0.00,,,0.00,520,WeatherCatV1.14B232,2013-04-21 07:00:00,
2013-04-21 03:05:00,38.0,36.7,29.85,NE,45,0.0,1.0,95,0.00,,,0.00,520,WeatherCatV1.14B232,2013-04-21 07:05:00,
2013-04-21 03:10:00,38.0,36.7,29.85,NE,45,0.0,1.0,95,0.00,,,0.00,520,WeatherCatV1.14B232,2013-04-21 07:10:00,
2013-04-21 03:15:00,38.0,36.7,29.85,NE,45,0.0,1.0,95,0.00,,,0.00,520,WeatherCatV1.14B232,2013-04-21 07:15:00,
2013-04-21 03:20:00,38.0,36.7,29.85,NE,45,0.0,1.0,95,0.00,,,0.00,520,WeatherCatV1.14B232,2013-04-21 07:20:00,
2013-04-21 03:25:00,38.0,36.7,29.85,NE,45,0.0,1.0,95,0.00,,,0.00,520,WeatherCatV1.14B232,2013-04-21 07:25:00,
2013-04-21 03:30:00,38.0,36.7,29.85,NE,45,0.0,1.0,95,0.00,,,0.00,520,WeatherCatV1.14B232,2013-04-21 07:30:00,
2013-04-21 03:35:00,38.0,36.7,29.85,NE,45,0.0,1.0,95,0.00,,,0.00,520,WeatherCatV1.14B232,2013-04-21 07:35:00,
2013-04-21 03:40:00,38.0,36.7,29.85,NE,45,0.0,1.0,95,0.00,,,0.00,520,WeatherCatV1.14B232,2013-04-21 07:40:00,
2013-04-21 03:45:00,38.0,36.7,29.85,NE,45,0.0,1.0,95,0.00,,,0.00,520,WeatherCatV1.14B232,2013-04-21 07:45:00,
2013-04-21 03:50:00,38.0,36.7,29.85,NE,45,0.0,1.0,95,0.00,,,0.00,520,WeatherCatV1.14B232,2013-04-21 07:50:00,
2013-04-21 03:55:00,38.0,36.7,29.85,NE,45,0.0,1.0,95,0.00,,,0.00,520,WeatherCatV1.14B232,2013-04-21 07:55:00,
2013-04-21 04:00:00,38.0,36.7,29.85,NE,45,0.0,1.0,95,0.00,,,0.00,520,WeatherCatV1.14B232,2013-04-21 08:00:00,
2013-04-21 04:05:00,38.0,36.7,29.85,NE,45,0.0,1.0,95,0.00,,,0.00,520,WeatherCatV1.14B232,2013-04-21 08:05:00,
2013-04-21 04:10:00,38.0,36.7,29.85,NE,45,0.0,1.0,95,0.00,,,0.00,520,WeatherCatV1.14B232,2013-04-21 08:10:00,
2013-04-21 04:15:00,38.0,36.7,29.85,NE,45,0.0,1.0,95,0.00,,,0.00,520,WeatherCatV1.14B232,2013-04-21 08:15:00,
2013-04-21 04:20:00,38.0,36.7,29.85,NE,45,0.0,1.0,95,0.00,,,0.00,520,WeatherCatV1.14B232,2013-04-21 08:20:00,
2013-04-21 04:25:00,38.0,36.7,29.85,NE,45,0.0,1.0,95,0.00,,,0.00,520,WeatherCatV1.14B232,2013-04-21 08:25:00,
2013-04-21 04:30:00,38.0,36.7,29.85,NE,45,0.0,1.0,95,0.00,,,0.00,520,WeatherCatV1.14B232,2013-04-21 08:30:00,
2013-04-21 04:35:00,38.0,36.7,29.85,NE,45,0.0,1.0,95,0.00,,,0.00,520,WeatherCatV1.14B232,2013-04-21 08:35:00,
2013-04-21 04:40:00,38.0,36.7,29.85,NE,45,0.0,1.0,95,0.00,,,0.00,520,WeatherCatV1.14B232,2013-04-21 08:40:00,
2013-04-21 04:45:00,38.0,36.7,29.85,NE,45,0.0,1.0,95,0.00,,,0.00,520,WeatherCatV1.14B232,2013-04-21 08:45:00,
2013-04-21 04:50:00,38.0,36.7,29.85,NE,45,0.0,1.0,95,0.00,,,0.00,520,WeatherCatV1.14B232,2013-04-21 08:50:00,
2013-04-21 04:55:00,38.0,36.7,29.85,NE,45,0.0,1.0,95,0.00,,,0.00,520,WeatherCatV1.14B232,2013-04-21 08:55:00,
2013-04-21 05:00:00,38.0,36.7,29.85,NE,45,0.0,1.0,95,0.00,,,0.00,520,WeatherCatV1.14B232,2013-04-21 09:00:00,
2013-04-21 05:05:00,38.0,36.7,29.85,NE,45,0.0,1.0,95,0.00,,,0.00,520,WeatherCatV1.14B232,2013-04-21 09:05:00,
2013-04-21 05:10:00,38.0,36.7,29.85,NE,45,0.0,1.0,95,0.00,,,0.00,520,WeatherCatV1.14B232,2013-04-21 09:10:00,
2013-04-21 05:15:00,38.0,36.7,29.85,NE,45,0.0,1.0,95,0.00,,,0.00,520,WeatherCatV1.14B232,2013-04-21 09:15:00,
2013-04-21 05:20:00,38.0,36.7,29.85,NE,45,0.0,1.0,95,0.00,,,0.00,520,WeatherCatV1.14B232,2013-04-21 09:20:00,
2013-04-21 05:25:00,38.0,36.7,29.85,NE,45,0.0,1.0,95,0.00,,,0.00,520,WeatherCatV1.14B232,2013-04-21 09:25:00,
2013-04-21 05:30:00,38.0,36.7,29.85,NE,45,0.0,1.0,95,0.00,,,0.00,520,WeatherCatV1.14B232,2013-04-21 09:30:00,
2013-04-21 05:35:00,38.0,36.7,29.85,NE,45,0.0,1.0,95,0.00,,,0.00,520,WeatherCatV1.14B232,2013-04-21 09:35:00,
2013-04-21 05:40:00,38.0,36.7,29.85,NE,45,0.0,1.0,95,0.00,,,0.00,520,WeatherCatV1.14B232,2013-04-21 09:40:00,
2013-04-21 05:45:00,38.0,36.7,29.85,NE,45,0.0,1.0,95,0.00,,,0.00,520,WeatherCatV1.14B232,2013-04-21 09:45:00,
2013-04-21 05:50:00,38.0,36.7,29.85,NE,45,0.0,1.0,95,0.00,,,0.00,520,WeatherCatV1.14B232,2013-04-21 09:50:00,
2013-04-21 05:55:00,38.0,36.7,29.85,NE,45,0.0,1.0,95,0.00,,,0.00,520,WeatherCatV1.14B232,2013-04-21 09:55:00,
2013-04-21 06:00:00,38.0,36.7,29.85,NE,45,0.0,1.0,95,0.00,,,0.00,520,WeatherCatV1.14B232,2013-04-21 10:00:00,
2013-04-21 06:05:00,38.0,36.7,29.85,NE,45,0.0,1.0,95,0.00,,,0.00,520,WeatherCatV1.14B232,2013-04-21 10:05:00,
2013-04-21 06:10:00,38.0,36.7,29.85,NE,45,0.0,1.0,95,0.00,,,0.00,520,WeatherCatV1.14B232,2013-04-21 10:10:00,
2013-04-21 06:15:00,38.0,36.7,29.85,NE,45,0.0,1.0,95,0.00,,,0.00,520,WeatherCatV1.14B232,2013-04-21 10:15:00,
2013-04-21 06:20:00,38.0,36.7,29.85,NE,45,0.0,1.0,95,0.00,,,0.00,520,WeatherCatV1.14B232,2013-04-21 10:20:00,
2013-04-21 06:25:00,38.0,36.7,29.85,NE,45,0.0,1.0,95,0.00,,,0.00,520,WeatherCatV1.14B232,2013-04-21 10:25:00,
2013-04-21 06:30:00,38.0,36.7,29.85,NE,45,0.0,1.0,95,0.00,,,0.00,520,WeatherCatV1.14B232,2013-04-21 10:30:00,
2013-04-21 06:35:00,38.0,36.7,29.85,NE,45,0.0,1.0,95,0.00,,,0.00,520,WeatherCatV1.14B232,2013-04-21 10:35:00,
2013-04-21 06:40:00,38.0,36.7,29.85,NE,45,0.0,1.0,95,0.00,,,0.00,520,WeatherCatV1.14B232,2013-04-21 10:40:00,
2013-04-21 06:45:00,38.0,36.7,29.85,NE,45,0.0,1.0,95,0.00,,,0.00,520,WeatherCatV1.14B232,2013-04-21 10:45:00,
2013-04-21 06:50:00,38.0,36.7,29.85,NE,45,0.0,1.0,95,0.00,,,0.00,520,WeatherCatV1.14B232,2013-04-21 10:50:00,
2013-04-21 06:55:00,38.0,36.7,29.85,NE,45,0.0,1.0,95,0.00,,,0.00,520,WeatherCatV1.14B232,2013-04-21 10:55:00,
2013-04-21 07:05:00,38.0,36.7,29.85,NE,45,0.0,1.0,95,0.00,,,0.00,520,WeatherCatV1.14B232,2013-04-21 11:05:00,
2013-04-21 07:10:00,33.8,23.7,30.50,NE,53,0.0,1.0,66,0.00,,,0.00,520,WeatherCatV1.14B232,2013-04-21 11:10:00,
2013-04-21 07:15:00,33.9,23.8,30.50,NE,53,1.0,2.0,66,0.00,,,0.00,520,WeatherCatV1.14B232,2013-04-21 11:15:00,
2013-04-21 07:20:00,34.1,24.0,30.50,NE,52,1.0,3.0,66,0.00,,,0.00,520,WeatherCatV1.14B232,2013-04-21 11:20:00,
2013-04-21 07:25:00,34.4,23.5,30.50,NE,52,0.0,3.0,64,0.00,,,0.00,520,WeatherCatV1.14B232,2013-04-21 11:25:00,
2013-04-21 07:30:00,34.9,24.0,30.51,NE,53,1.0,1.0,64,0.00,,,0.00,520,WeatherCatV1.14B232,2013-04-21 11:30:00,
2013-04-21 07:35:00,35.7,24.7,30.51,NE,53,0.0,1.0,64,0.00,,,0.00,520,WeatherCatV1.14B232,2013-04-21 11:35:00,
2013-04-21 07:40:00,36.1,23.2,30.51,NE,53,1.0,5.0,59,0.00,,,0.00,520,WeatherCatV1.14B232,2013-04-21 11:40:00,
2013-04-21 07:45:00,36.7,23.7,30.51,NE,53,1.0,4.0,59,0.00,,,0.00,520,WeatherCatV1.14B232,2013-04-21 11:45:00,
2013-04-21 07:50:00,37.3,24.3,30.52,NE,53,1.0,1.0,59,0.00,,,0.00,520,WeatherCatV1.14B232,2013-04-21 11:50:00,
2013-04-21 07:55:00,37.7,23.9,30.52,NE,53,3.0,3.0,57,0.00,,,0.00,520,WeatherCatV1.14B232,2013-04-21 11:55:00,
2013-04-21 08:00:00,38.0,24.1,30.52,NE,53,1.0,3.0,57,0.00,,,0.00,520,WeatherCatV1.14B232,2013-04-21 12:00:00,
2013-04-21 08:05:00,38.2,23.0,30.52,NE,53,3.0,4.0,54,0.00,,,0.00,520,WeatherCatV1.14B232,2013-04-21 12:05:00,
2013-04-21 08:10:00,38.3,23.1,30.52,NE,53,3.0,8.0,54,0.00,,,0.00,520,WeatherCatV1.14B232,2013-04-21 12:10:00,
2013-04-21 08:15:00,38.5,22.9,30.52,NE,53,4.0,4.0,53,0.00,,,0.00,520,WeatherCatV1.14B232,2013-04-21 12:15:00,
2013-04-21 08:20:00,38.8,24.0,30.52,NE,53,0.0,3.0,55,0.00,,,0.00,520,WeatherCatV1.14B232,2013-04-21 12:20:00,
2013-04-21 08:25:00,39.3,23.2,30.53,NE,53,1.0,2.0,52,0.00,,,0.00,520,WeatherCatV1.14B232,2013-04-21 12:25:00,
2013-04-21 08:30:00,39.6,23.4,30.53,NE,53,2.0,2.0,52,0.00,,,0.00,520,WeatherCatV1.14B232,2013-04-21 12:30:00,
2013-04-21 08:35:00,39.8,23.6,30.53,NE,53,1.0,4.0,52,0.00,,,0.00,520,WeatherCatV1.14B232,2013-04-21 12:35:00,
2013-04-21 08:40:00,39.8,24.1,30.53,NE,53,2.0,2.0,53,0.00,,,0.00,520,WeatherCatV1.14B232,2013-04-21 12:40:00,
2013-04-21 08:45:00,40.3,24.1,30.53,NE,53,1.0,4.0,52,0.00,,,0.00,520,WeatherCatV1.14B232,2013-04-21 12:45:00,
2013-04-21 08:50:00,40.7,24.0,30.53,NE,53,1.0,2.0,51,0.00,,,0.00,520,WeatherCatV1.14B232,2013-04-21 12:50:00,
2013-04-21 08:55:00,41.2,25.4,30.53,NE,53,1.0,2.0,53,0.00,,,0.00,520,WeatherCatV1.14B232,2013-04-21 12:55:00,
2013-04-21 09:00:00,41.5,24.7,30.53,NE,53,2.0,3.0,51,0.00,,,0.00,520,WeatherCatV1.14B232,2013-04-21 13:00:00,
2013-04-21 09:05:00,41.2,23.5,30.53,NE,53,2.0,4.0,49,0.00,,,0.00,520,WeatherCatV1.14B232,2013-04-21 13:05:00,
2013-04-21 09:10:00,41.0,24.3,30.53,NE,53,2.0,3.0,51,0.00,,,0.00,520,WeatherCatV1.14B232,2013-04-21 13:10:00,
2013-04-21 09:15:00,41.0,23.8,30.53,NE,53,3.0,7.0,50,0.00,,,0.00,520,WeatherCatV1.14B232,2013-04-21 13:15:00,
2013-04-21 09:20:00,41.1,24.4,30.53,NE,53,2.0,4.0,51,0.00,,,0.00,520,WeatherCatV1.14B232,2013-04-21 13:20:00,
2013-04-21 09:25:00,40.9,24.6,30.54,NE,52,0.0,4.0,52,0.00,,,0.00,520,WeatherCatV1.14B232,2013-04-21 13:25:00,
2013-04-21 09:30:00,41.6,25.3,30.54,NE,52,1.0,3.0,52,0.00,,,0.00,520,WeatherCatV1.14B232,2013-04-21 13:30:00,
2013-04-21 09:35:00,42.2,24.9,30.54,NE,53,3.0,3.0,50,0.00,,,0.00,520,WeatherCatV1.14B232,2013-04-21 13:35:00,
2013-04-21 09:40:00,42.3,24.5,30.54,NE,53,0.0,2.0,49,0.00,,,0.00,520,WeatherCatV1.14B232,2013-04-21 13:40:00,
2013-04-21 09:45:00,42.2,23.9,30.54,NE,53,3.0,7.0,48,0.00,,,0.00,520,WeatherCatV1.14B232,2013-04-21 13:45:00,
2013-04-21 09:50:00,42.7,24.4,30.55,NE,53,2.0,2.0,48,0.00,,,0.00,520,WeatherCatV1.14B232,2013-04-21 13:50:00,
2013-04-21 09:55:00,43.1,25.3,30.55,NE,52,1.0,3.0,49,0.00,,,0.00,520,WeatherCatV1.14B232,2013-04-21 13:55:00,
2013-04-21 10:00:00,43.3,24.4,30.55,NE,53,1.0,4.0,47,0.00,,,0.00,520,WeatherCatV1.14B232,2013-04-21 14:00:00,
2013-04-21 10:05:00,44.0,26.1,30.55,NE,53,3.0,3.0,49,0.00,,,0.00,520,WeatherCatV1.14B232,2013-04-21 14:05:00,
2013-04-21 10:10:00,44.2,24.2,30.55,NE,52,1.0,1.0,45,0.00,,,0.00,520,WeatherCatV1.14B232,2013-04-21 14:10:00,
2013-04-21 10:15:00,44.7,24.7,30.56,NE,52,3.0,5.0,45,0.00,,,0.00,520,WeatherCatV1.14B232,2013-04-21 14:15:00,
2013-04-21 10:20:00,44.2,25.3,30.56,NE,52,1.0,5.0,47,0.00,,,0.00,520,WeatherCatV1.14B232,2013-04-21 14:20:00,
2013-04-21 10:25:00,44.8,24.8,30.56,NE,53,1.0,2.0,45,0.00,,,0.00,520,WeatherCatV1.14B232,2013-04-21 14:25:00,
2013-04-21 10:30:00,45.0,23.9,30.56,NE,52,1.0,4.0,43,0.00,,,0.00,520,WeatherCatV1.14B232,2013-04-21 14:30:00,
2013-04-21 10:35:00,45.6,25.5,30.56,NE,52,4.0,4.0,45,0.00,,,0.00,520,WeatherCatV1.14B232,2013-04-21 14:35:00,
2013-04-21 10:40:00,46.0,25.3,30.56,NE,52,0.0,2.0,44,0.00,,,0.00,520,WeatherCatV1.14B232,2013-04-21 14:40:00,
2013-04-21 10:45:00,46.3,25.0,30.56,NE,52,5.0,5.0,43,0.00,,,0.00,520,WeatherCatV1.14B232,2013-04-21 14:45:00,
2013-04-21 10:50:00,46.3,23.9,30.56,NE,53,3.0,4.0,41,0.00,,,0.00,520,WeatherCatV1.14B232,2013-04-21 14:50:00,
2013-04-21 10:55:00,46.0,23.6,30.56,NE,52,2.0,4.0,41,0.00,,,0.00,520,WeatherCatV1.14B232,2013-04-21 14:55:00,
2013-04-21 11:00:00,46.1,21.9,30.56,NE,53,2.0,5.0,38,0.00,,,0.00,520,WeatherCatV1.14B232,2013-04-21 15:00:00,
2013-04-21 11:05:00,46.4,25.1,30.56,NE,52,1.0,4.0,43,0.00,,,0.00,520,WeatherCatV1.14B232,2013-04-21 15:05:00,
2013-04-21 11:10:00,46.3,23.3,30.56,NE,52,0.0,2.0,40,0.00,,,0.00,520,WeatherCatV1.14B232,2013-04-21 15:10:00,
2013-04-21 11:15:00,46.5,24.7,30.56,NE,52,1.0,2.0,42,0.00,,,0.00,520,WeatherCatV1.14B232,2013-04-21 15:15:00,
2013-04-21 11:20:00,47.1,25.2,30.56,NE,52,3.0,4.0,42,0.00,,,0.00,520,WeatherCatV1.14B232,2013-04-21 15:20:00,
2013-04-21 11:25:00,46.9,22.0,30.56,NE,53,2.0,7.0,37,0.00,,,0.00,520,WeatherCatV1.14B232,2013-04-21 15:25:00,
2013-04-21 11:30:00,46.2,22.6,30.56,NE,52,0.0,3.0,39,0.00,,,0.00,520,WeatherCatV1.14B232,2013-04-21 15:30:00,
2013-04-21 11:35:00,46.7,23.1,30.56,NE,53,3.0,5.0,39,0.00,,,0.00,520,WeatherCatV1.14B232,2013-04-21 15:35:00,
2013-04-21 11:40:00,47.0,22.7,30.56,NE,52,2.0,3.0,38,0.00,,,0.00,520,WeatherCatV1.14B232,2013-04-21 15:40:00,
2013-04-21 11:45:00,47.1,24.0,30.56,NE,52,1.0,4.0,40,0.00,,,0.00,520,WeatherCatV1.14B232,2013-04-21 15:45:00,
2013-04-21 11:50:00,47.5,23.2,30.56,NE,52,6.0,10.0,38,0.00,,,0.00,520,WeatherCatV1.14B232,2013-04-21 15:50:00,
2013-04-21 11:55:00,47.1,23.4,30.56,NE,52,3.0,4.0,39,0.00,,,0.00,520,WeatherCatV1.14B232,2013-04-21 15:55:00,
2013-04-21 12:00:00,47.2,22.9,30.56,NE,52,3.0,6.0,38,0.00,,,0.00,520,WeatherCatV1.14B232,2013-04-21 16:00:00,
2013-04-21 12:05:00,47.6,22.6,30.56,NE,53,2.0,2.0,37,0.00,,,0.00,520,WeatherCatV1.14B232,2013-04-21 16:05:00,
2013-04-21 12:10:00,47.9,24.8,30.56,NE,53,3.0,4.0,40,0.00,,,0.00,520,WeatherCatV1.14B232,2013-04-21 16:10:00,
2013-04-21 12:15:00,47.5,21.9,30.55,NE,52,1.0,8.0,36,0.00,,,0.00,520,WeatherCatV1.14B232,2013-04-21 16:15:00,
2013-04-21 12:20:00,48.3,23.3,30.55,NE,52,3.0,4.0,37,0.00,,,0.00,520,WeatherCatV1.14B232,2013-04-21 16:20:00,
2013-04-21 12:25:00,48.3,22.6,30.55,NE,53,2.0,3.0,36,0.00,,,0.00,520,WeatherCatV1.14B232,2013-04-21 16:25:00,
2013-04-21 12:30:00,49.5,25.6,30.56,NE,53,1.0,1.0,39,0.00,,,0.00,520,WeatherCatV1.14B232,2013-04-21 16:30:00,
2013-04-21 12:35:00,49.6,22.4,30.55,NE,52,1.0,6.0,34,0.00,,,0.00,520,WeatherCatV1.14B232,2013-04-21 16:35:00,
2013-04-21 12:40:00,49.5,22.3,30.55,NE,52,0.0,4.0,34,0.00,,,0.00,520,WeatherCatV1.14B232,2013-04-21 16:40:00,
2013-04-21 12:45:00,49.5,24.3,30.55,NE,53,2.0,2.0,37,0.00,,,0.00,520,WeatherCatV1.14B232,2013-04-21 16:45:00,
2013-04-21 12:50:00,48.9,21.8,30.55,NE,53,0.0,2.0,34,0.00,,,0.00,520,WeatherCatV1.14B232,2013-04-21 16:50:00,
2013-04-21 12:55:00,49.2,24.7,30.55,NE,52,1.0,2.0,38,0.00,,,0.00,520,WeatherCatV1.14B232,2013-04-21 16:55:00,
2013-04-21 13:00:00,49.6,23.1,30.55,South,174,4.0,4.0,35,0.00,,,0.00,520,WeatherCatV1.14B232,2013-04-21 17:00:00,
2013-04-21 13:05:00,49.3,23.5,30.55,South,174,0.0,2.0,36,0.00,,,0.00,520,WeatherCatV1.14B232,2013-04-21 17:05:00,
2013-04-21 13:10:00,49.2,23.4,30.55,South,174,1.0,3.0,36,0.00,,,0.00,520,WeatherCatV1.14B232,2013-04-21 17:10:00,
2013-04-21 13:15:00,49.9,24.0,30.55,South,174,1.0,3.0,36,0.00,,,0.00,520,WeatherCatV1.14B232,2013-04-21 17:15:00,
2013-04-21 13:20:00,50.6,23.3,30.55,South,174,2.0,7.0,34,0.00,,,0.00,520,WeatherCatV1.14B232,2013-04-21 17:20:00,
2013-04-21 13:25:00,50.6,23.3,30.55,South,174,2.0,2.0,34,0.00,,,0.00,520,WeatherCatV1.14B232,2013-04-21 17:25:00,
2013-04-21 13:30:00,50.3,23.0,30.54,South,174,2.0,2.0,34,0.00,,,0.00,520,WeatherCatV1.14B232,2013-04-21 17:30:00,
2013-04-21 13:35:00,50.7,24.1,30.54,South,174,3.0,4.0,35,0.00,,,0.00,520,WeatherCatV1.14B232,2013-04-21 17:35:00,
2013-04-21 13:40:00,51.4,23.3,30.55,South,174,2.0,5.0,33,0.00,,,0.00,520,WeatherCatV1.14B232,2013-04-21 17:40:00,
2013-04-21 13:45:00,52.1,23.2,30.55,South,174,1.0,5.0,32,0.00,,,0.00,520,WeatherCatV1.14B232,2013-04-21 17:45:00,
2013-04-21 13:50:00,51.3,23.2,30.55,South,174,1.0,2.0,33,0.00,,,0.00,520,WeatherCatV1.14B232,2013-04-21 17:50:00,
2013-04-21 13:55:00,51.0,22.2,30.55,South,174,4.0,7.0,32,0.00,,,0.00,520,WeatherCatV1.14B232,2013-04-21 17:55:00,
2013-04-21 14:00:00,50.7,21.9,30.54,South,174,0.0,3.0,32,0.00,,,0.00,520,WeatherCatV1.14B232,2013-04-21 18:00:00,
2013-04-21 14:05:00,51.6,23.4,30.55,South,174,3.0,3.0,33,0.00,,,0.00,520,WeatherCatV1.14B232,2013-04-21 18:05:00,
2013-04-21 14:10:00,51.6,21.2,30.55,South,174,1.0,4.0,30,0.00,,,0.00,520,WeatherCatV1.14B232,2013-04-21 18:10:00,
2013-04-21 14:15:00,52.0,22.3,30.55,South,175,3.0,3.0,31,0.00,,,0.00,520,WeatherCatV1.14B232,2013-04-21 18:15:00,
2013-04-21 14:20:00,51.7,22.8,30.55,South,174,1.0,2.0,32,0.00,,,0.00,520,WeatherCatV1.14B232,2013-04-21 18:20:00,
2013-04-21 14:25:00,52.2,24.0,30.54,South,174,1.0,2.0,33,0.00,,,0.00,520,WeatherCatV1.14B232,2013-04-21 18:25:00,
2013-04-21 14:30:00,52.3,23.3,30.54,South,175,1.0,4.0,32,0.00,,,0.00,520,WeatherCatV1.14B232,2013-04-21 18:30:00,
2013-04-21 14:35:00,51.8,22.9,30.54,South,174,2.0,5.0,32,0.00,,,0.00,520,WeatherCatV1.14B232,2013-04-21 18:35:00,
2013-04-21 14:40:00,51.8,22.1,30.54,South,174,3.0,3.0,31,0.00,,,0.00,520,WeatherCatV1.14B232,2013-04-21 18:40:00,
2013-04-21 14:45:00,52.4,26.2,30.54,South,174,2.0,4.0,36,0.00,,,0.00,520,WeatherCatV1.14B232,2013-04-21 18:45:00,
2013-04-21 14:50:00,52.0,21.5,30.54,South,174,2.0,4.0,30,0.00,,,0.00,520,WeatherCatV1.14B232,2013-04-21 18:50:00,
2013-04-21 14:55:00,52.4,24.9,30.54,South,175,3.0,4.0,34,0.00,,,0.00,520,WeatherCatV1.14B232,2013-04-21 18:55:00,
2013-04-21 15:00:00,52.3,22.6,30.53,South,174,1.0,6.0,31,0.00,,,0.00,520,WeatherCatV1.14B232,2013-04-21 19:00:00,
2013-04-21 15:05:00,52.7,23.7,30.53,South,174,1.0,3.0,32,0.00,,,0.00,520,WeatherCatV1.14B232,2013-04-21 19:05:00,
2013-04-21 15:10:00,52.1,20.8,30.53,South,174,0.0,2.0,29,0.00,,,0.00,520,WeatherCatV1.14B232,2013-04-21 19:10:00,
2013-04-21 15:15:00,52.4,22.7,30.53,South,174,3.0,3.0,31,0.00,,,0.00,520,WeatherCatV1.14B232,2013-04-21 19:15:00,
2013-04-21 15:20:00,52.7,22.9,30.53,South,174,1.0,1.0,31,0.00,,,0.00,520,WeatherCatV1.14B232,2013-04-21 19:20:00,
2013-04-21 15:25:00,53.1,24.8,30.53,South,174,0.0,1.0,33,0.00,,,0.00,520,WeatherCatV1.14B232,2013-04-21 19:25:00,
2013-04-21 15:26:00,53.2,24.9,30.53,South,175,2.0,2.0,33,0.00,,,0.00,520,WeatherCatV1.14B232,2013-04-21 19:26:00,
2013-04-21 15:31:00,52.8,23.0,30.53,South,174,1.0,3.0,31,0.00,,,0.00,520,WeatherCatV1.14B232,2013-04-21 19:31:00,
2013-04-21 15:36:00,53.1,24.8,30.53,South,174,2.0,6.0,33,0.00,,,0.00,520,WeatherCatV1.14B232,2013-04-21 19:36:00,
2013-04-21 15:41:00,53.2,21.8,30.53,South,174,0.0,2.0,29,0.00,,,0.00,520,WeatherCatV1.14B232,2013-04-21 19:41:00,
2013-04-21 15:46:00,53.6,22.9,30.53,South,174,1.0,2.0,30,0.00,,,0.00,520,WeatherCatV1.14B232,2013-04-21 19:46:00,
2013-04-21 15:51:00,53.8,24.6,30.52,South,174,1.0,3.0,32,0.00,,,0.00,520,WeatherCatV1.14B232,2013-04-21 19:51:00,
2013-04-21 15:56:00,53.1,22.5,30.52,South,175,1.0,6.0,30,0.00,,,0.00,520,WeatherCatV1.14B232,2013-04-21 19:56:00,
2013-04-21 16:01:00,53.2,22.6,30.53,South,174,3.0,5.0,30,0.00,,,0.00,520,WeatherCatV1.14B232,2013-04-21 20:01:00,
2013-04-21 16:06:00,52.9,22.3,30.53,South,174,2.0,3.0,30,0.00,,,0.00,520,WeatherCatV1.14B232,2013-04-21 20:06:00,
2013-04-21 16:11:00,52.5,20.4,30.52,South,174,2.0,4.0,28,0.00,,,0.00,520,WeatherCatV1.14B232,2013-04-21 20:11:00,
2013-04-21 16:16:00,52.4,20.3,30.52,South,174,1.0,6.0,28,0.00,,,0.00,520,WeatherCatV1.14B232,2013-04-21 20:16:00,
2013-04-21 16:21:00,52.8,22.2,30.52,South,174,1.0,3.0,30,0.00,,,0.00,520,WeatherCatV1.14B232,2013-04-21 20:21:00,
2013-04-21 16:26:00,53.6,25.2,30.52,South,174,1.0,2.0,33,0.00,,,0.00,520,WeatherCatV1.14B232,2013-04-21 20:26:00,
2013-04-21 16:31:00,53.6,22.9,30.52,South,174,2.0,4.0,30,0.00,,,0.00,520,WeatherCatV1.14B232,2013-04-21 20:31:00,
2013-04-21 16:36:00,53.7,23.8,30.53,South,174,1.0,2.0,31,0.00,,,0.00,520,WeatherCatV1.14B232,2013-04-21 20:36:00,
2013-04-21 16:41:00,53.1,21.7,30.53,South,174,1.0,6.0,29,0.00,,,0.00,520,WeatherCatV1.14B232,2013-04-21 20:41:00,
2013-04-21 16:46:00,52.7,22.1,30.53,South,175,1.0,1.0,30,0.00,,,0.00,520,WeatherCatV1.14B232,2013-04-21 20:46:00,
2013-04-21 16:51:00,52.7,20.5,30.53,South,175,1.0,2.0,28,0.00,,,0.00,520,WeatherCatV1.14B232,2013-04-21 20:51:00,
2013-04-21 16:56:00,53.4,21.1,30.53,South,174,2.0,4.0,28,0.00,,,0.00,520,WeatherCatV1.14B232,2013-04-21 20:56:00,
2013-04-21 17:01:00,53.4,21.1,30.53,South,174,1.0,2.0,28,0.00,,,0.00,520,WeatherCatV1.14B232,2013-04-21 21:01:00,
2013-04-21 17:06:00,53.7,20.5,30.53,South,174,1.0,1.0,27,0.00,,,0.00,520,WeatherCatV1.14B232,2013-04-21 21:06:00,
2013-04-21 17:11:00,53.6,22.1,30.53,South,174,1.0,2.0,29,0.00,,,0.00,520,WeatherCatV1.14B232,2013-04-21 21:11:00,
2013-04-21 17:16:00,53.1,20.0,30.53,South,174,1.0,2.0,27,0.00,,,0.00,520,WeatherCatV1.14B232,2013-04-21 21:16:00,
2013-04-21 17:21:00,52.7,19.7,30.53,South,175,2.0,3.0,27,0.00,,,0.00,520,WeatherCatV1.14B232,2013-04-21 21:21:00,
2013-04-21 17:26:00,52.3,18.5,30.53,South,174,3.0,3.0,26,0.00,,,0.00,520,WeatherCatV1.14B232,2013-04-21 21:26:00,
2013-04-21 17:31:00,52.4,19.4,30.54,South,174,3.0,5.0,27,0.00,,,0.00,520,WeatherCatV1.14B232,2013-04-21 21:31:00,
2013-04-21 17:36:00,52.3,22.6,30.53,South,174,1.0,3.0,31,0.00,,,0.00,520,WeatherCatV1.14B232,2013-04-21 21:36:00,
2013-04-21 17:41:00,52.4,22.7,30.53,South,174,1.0,2.0,31,0.00,,,0.00,520,WeatherCatV1.14B232,2013-04-21 21:41:00,
2013-04-21 17:46:00,52.3,20.2,30.53,South,174,1.0,2.0,28,0.00,,,0.00,520,WeatherCatV1.14B232,2013-04-21 21:46:00,
2013-04-21 17:51:00,52.1,20.0,30.54,South,174,1.0,1.0,28,0.00,,,0.00,520,WeatherCatV1.14B232,2013-04-21 21:51:00,
2013-04-21 17:56:00,51.7,19.7,30.54,South,174,1.0,3.0,28,0.00,,,0.00,520,WeatherCatV1.14B232,2013-04-21 21:56:00,
2013-04-21 18:01:00,51.4,19.4,30.54,South,174,0.0,2.0,28,0.00,,,0.00,520,WeatherCatV1.14B232,2013-04-21 22:01:00,
2013-04-21 18:06:00,51.7,19.7,30.54,South,174,0.0,1.0,28,0.00,,,0.00,520,WeatherCatV1.14B232,2013-04-21 22:06:00,
2013-04-21 18:11:00,52.0,21.5,30.54,South,174,1.0,6.0,30,0.00,,,0.00,520,WeatherCatV1.14B232,2013-04-21 22:11:00,
2013-04-21 18:16:00,52.0,19.9,30.54,South,174,1.0,1.0,28,0.00,,,0.00,520,WeatherCatV1.14B232,2013-04-21 22:16:00,
2013-04-21 18:21:00,52.1,21.6,30.54,South,174,1.0,1.0,30,0.00,,,0.00,520,WeatherCatV1.14B232,2013-04-21 22:21:00,
2013-04-21 18:26:00,52.0,20.7,30.54,South,174,1.0,1.0,29,0.00,,,0.00,520,WeatherCatV1.14B232,2013-04-21 22:26:00,
2013-04-21 18:31:00,51.6,21.2,30.54,South,174,1.0,2.0,30,0.00,,,0.00,520,WeatherCatV1.14B232,2013-04-21 22:31:00,
2013-04-21 18:36:00,51.3,20.1,30.55,South,174,1.0,3.0,29,0.00,,,0.00,520,WeatherCatV1.14B232,2013-04-21 22:36:00,
2013-04-21 18:37:00,51.2,20.0,30.55,South,174,0.0,2.0,29,0.00,,,0.00,520,WeatherCatV1.14B232,2013-04-21 22:37:00,
2013-04-21 18:42:00,51.3,22.5,30.55,South,174,0.0,1.0,32,0.00,,,0.00,520,WeatherCatV1.14B232,2013-04-21 22:42:00,
2013-04-21 18:47:00,51.0,19.9,30.55,South,174,1.0,1.0,29,0.00,,,0.00,520,WeatherCatV1.14B232,2013-04-21 22:47:00,
2013-04-21 18:52:00,50.6,19.5,30.55,South,174,1.0,1.0,29,0.00,,,0.00,520,WeatherCatV1.14B232,2013-04-21 22:52:00,
2013-04-21 18:57:00,50.1,19.1,30.55,South,174,0.0,2.0,29,0.00,,,0.00,520,WeatherCatV1.14B232,2013-04-21 22:57:00,
2013-04-21 19:02:00,49.8,18.8,30.55,South,174,1.0,2.0,29,0.00,,,0.00,520,WeatherCatV1.14B232,2013-04-21 23:02:00,
2013-04-21 19:07:00,49.5,19.4,30.55,South,175,1.0,1.0,30,0.00,,,0.00,520,WeatherCatV1.14B232,2013-04-21 23:07:00,
2013-04-21 19:12:00,49.2,20.6,30.55,South,174,0.0,1.0,32,0.00,,,0.00,520,WeatherCatV1.14B232,2013-04-21 23:12:00,
2013-04-21 19:17:00,48.9,19.6,30.55,South,174,1.0,2.0,31,0.00,,,0.00,520,WeatherCatV1.14B232,2013-04-21 23:17:00,
2013-04-21 19:22:00,48.7,20.2,30.55,South,175,0.0,1.0,32,0.00,,,0.00,520,WeatherCatV1.14B232,2013-04-21 23:22:00,
2013-04-21 19:27:00,48.6,19.3,30.56,South,174,1.0,1.0,31,0.00,,,0.00,520,WeatherCatV1.14B232,2013-04-21 23:27:00,
2013-04-21 19:32:00,48.4,20.6,30.56,South,175,0.0,1.0,33,0.00,,,0.00,520,WeatherCatV1.14B232,2013-04-21 23:32:00,
2013-04-21 19:37:00,48.0,21.0,30.56,South,174,1.0,1.0,34,0.00,,,0.00,520,WeatherCatV1.14B232,2013-04-21 23:37:00,
2013-04-21 19:42:00,47.7,21.4,30.56,South,174,0.0,0.0,35,0.00,,,0.00,520,WeatherCatV1.14B232,2013-04-21 23:42:00,
2013-04-21 19:47:00,47.5,20.5,30.56,South,174,1.0,1.0,34,0.00,,,0.00,520,WeatherCatV1.14B232,2013-04-21 23:47:00,
2013-04-21 19:52:00,47.2,21.6,30.57,South,174,0.0,0.0,36,0.00,,,0.00,520,WeatherCatV1.14B232,2013-04-21 23:52:00,
2013-04-21 19:57:00,46.8,21.9,30.57,South,174,0.0,0.0,37,0.00,,,0.00,520,WeatherCatV1.14B232,2013-04-21 23:57:00,
2013-04-21 20:02:00,46.4,20.9,30.57,South,174,0.0,1.0,36,0.00,,,0.00,520,WeatherCatV1.14B232,2013-04-22 00:02:00,
2013-04-21 20:07:00,46.2,21.4,30.57,South,174,0.0,0.0,37,0.00,,,0.00,520,WeatherCatV1.14B232,2013-04-22 00:07:00,
2013-04-21 20:12:00,46.0,21.8,30.58,South,174,1.0,1.0,38,0.00,,,0.00,520,WeatherCatV1.14B232,2013-04-22 00:12:00,
2013-04-21 20:17:00,46.0,21.8,30.58,South,174,0.0,0.0,38,0.00,,,0.00,520,WeatherCatV1.14B232,2013-04-22 00:17:00,
2013-04-21 20:22:00,45.7,20.9,30.58,South,174,0.0,0.0,37,0.00,,,0.00,520,WeatherCatV1.14B232,2013-04-22 00:22:00,
2013-04-21 20:27:00,45.6,22.7,30.58,South,174,0.0,0.0,40,0.00,,,0.00,520,WeatherCatV1.14B232,2013-04-22 00:27:00,
2013-04-21 20:32:00,45.1,23.4,30.58,South,175,0.0,0.0,42,0.00,,,0.00,520,WeatherCatV1.14B232,2013-04-22 00:32:00,
2013-04-21 20:37:00,44.7,23.0,30.58,South,174,0.0,0.0,42,0.00,,,0.00,520,WeatherCatV1.14B232,2013-04-22 00:37:00,
2013-04-21 20:42:00,44.1,22.5,30.58,South,174,0.0,0.0,42,0.00,,,0.00,520,WeatherCatV1.14B232,2013-04-22 00:42:00,
2013-04-21 20:47:00,43.8,23.9,30.58,South,174,0.0,0.0,45,0.00,,,0.00,520,WeatherCatV1.14B232,2013-04-22 00:47:00,
2013-04-21 20:52:00,43.6,22.6,30.59,South,174,0.0,0.0,43,0.00,,,0.00,520,WeatherCatV1.14B232,2013-04-22 00:52:00,
2013-04-21 20:57:00,43.4,21.3,30.59,South,174,0.0,0.0,41,0.00,,,0.00,520,WeatherCatV1.14B232,2013-04-22 00:57:00,
2013-04-21 21:02:00,43.3,21.2,30.59,South,174,0.0,0.0,41,0.00,,,0.00,520,WeatherCatV1.14B232,2013-04-22 01:02:00,
2013-04-21 21:07:00,43.2,21.1,30.59,South,174,0.0,0.0,41,0.00,,,0.00,520,WeatherCatV1.14B232,2013-04-22 01:07:00,
2013-04-21 21:12:00,42.9,21.4,30.60,South,174,0.0,0.0,42,0.00,,,0.00,520,WeatherCatV1.14B232,2013-04-22 01:12:00,
2013-04-21 21:17:00,42.8,22.4,30.60,South,175,0.0,0.0,44,0.00,,,0.00,520,WeatherCatV1.14B232,2013-04-22 01:17:00,
2013-04-21 21:22:00,42.7,21.2,30.60,South,174,0.0,0.0,42,0.00,,,0.00,520,WeatherCatV1.14B232,2013-04-22 01:22:00,
2013-04-21 21:27:00,42.8,20.7,30.60,South,174,0.0,0.0,41,0.00,,,0.00,520,WeatherCatV1.14B232,2013-04-22 01:27:00,
2013-04-21 21:32:00,42.7,20.7,30.60,South,174,0.0,0.0,41,0.00,,,0.00,520,WeatherCatV1.14B232,2013-04-22 01:32:00,
2013-04-21 21:37:00,42.5,20.5,30.60,South,174,0.0,0.0,41,0.00,,,0.00,520,WeatherCatV1.14B232,2013-04-22 01:37:00,
2013-04-21 21:42:00,42.5,19.9,30.60,South,174,0.0,0.0,40,0.00,,,0.00,520,WeatherCatV1.14B232,2013-04-22 01:42:00,
2013-04-21 21:47:00,42.5,19.9,30.60,South,174,0.0,0.0,40,0.00,,,0.00,520,WeatherCatV1.14B232,2013-04-22 01:47:00,
2013-04-21 21:53:00,42.3,20.3,30.60,South,174,0.0,0.0,41,0.00,,,0.00,520,WeatherCatV1.14B232,2013-04-22 01:53:00,
2013-04-21 21:58:00,42.6,22.8,30.60,South,174,0.0,0.0,45,0.00,,,0.00,520,WeatherCatV1.14B232,2013-04-22 01:58:00,
2013-04-21 22:03:00,42.6,23.3,30.60,South,174,0.0,0.0,46,0.00,,,0.00,520,WeatherCatV1.14B232,2013-04-22 02:03:00,
2013-04-21 22:08:00,42.7,22.9,30.59,South,174,0.0,0.0,45,0.00,,,0.00,520,WeatherCatV1.14B232,2013-04-22 02:08:00,
2013-04-21 22:13:00,42.6,23.3,30.60,South,174,0.0,0.0,46,0.00,,,0.00,520,WeatherCatV1.14B232,2013-04-22 02:13:00,
2013-04-21 22:18:00,42.4,22.6,30.59,South,174,0.0,0.0,45,0.00,,,0.00,520,WeatherCatV1.14B232,2013-04-22 02:18:00,
2013-04-21 22:23:00,42.2,22.4,30.60,South,174,0.0,0.0,45,0.00,,,0.00,520,WeatherCatV1.14B232,2013-04-22 02:23:00,
2013-04-21 22:28:00,42.1,22.3,30.60,South,174,0.0,0.0,45,0.00,,,0.00,520,WeatherCatV1.14B232,2013-04-22 02:28:00,
2013-04-21 22:33:00,41.9,22.1,30.60,South,174,0.0,0.0,45,0.00,,,0.00,520,WeatherCatV1.14B232,2013-04-22 02:33:00,
2013-04-21 22:38:00,41.8,23.1,30.59,South,174,0.0,0.0,47,0.00,,,0.00,520,WeatherCatV1.14B232,2013-04-22 02:38:00,
2013-04-21 22:43:00,41.8,22.0,30.60,South,174,0.0,0.0,45,0.00,,,0.00,520,WeatherCatV1.14B232,2013-04-22 02:43:00,
2013-04-21 22:48:00,41.8,22.0,30.60,South,174,0.0,0.0,45,0.00,,,0.00,520,WeatherCatV1.14B232,2013-04-22 02:48:00,
2013-04-21 22:53:00,41.7,23.5,30.60,South,174,0.0,0.0,48,0.00,,,0.00,520,WeatherCatV1.14B232,2013-04-22 02:53:00,
2013-04-21 22:58:00,41.7,23.5,30.60,South,174,0.0,1.0,48,0.00,,,0.00,520,WeatherCatV1.14B232,2013-04-22 02:58:00,
2013-04-21 23:03:00,41.6,24.4,30.60,South,175,0.0,0.0,50,0.00,,,0.00,520,WeatherCatV1.14B232,2013-04-22 03:03:00,
2013-04-21 23:08:00,41.6,24.4,30.60,South,174,0.0,0.0,50,0.00,,,0.00,520,WeatherCatV1.14B232,2013-04-22 03:08:00,
2013-04-21 23:13:00,41.5,24.3,30.60,South,174,0.0,0.0,50,0.00,,,0.00,520,WeatherCatV1.14B232,2013-04-22 03:13:00,
2013-04-21 23:18:00,41.3,24.1,30.61,South,174,0.0,0.0,50,0.00,,,0.00,520,WeatherCatV1.14B232,2013-04-22 03:18:00,
2013-04-21 23:23:00,41.0,24.7,30.61,South,174,0.0,0.0,52,0.00,,,0.00,520,WeatherCatV1.14B232,2013-04-22 03:23:00,
2013-04-21 23:28:00,40.7,24.9,30.61,South,174,0.0,0.0,53,0.00,,,0.00,520,WeatherCatV1.14B232,2013-04-22 03:28:00,
2013-04-21 23:33:00,40.4,24.6,30.61,South,174,0.0,0.0,53,0.00,,,0.00,520,WeatherCatV1.14B232,2013-04-22 03:33:00,
2013-04-21 23:38:00,40.4,25.5,30.61,South,174,0.0,0.0,55,0.00,,,0.00,520,WeatherCatV1.14B232,2013-04-22 03:38:00,
2013-04-21 23:43:00,40.4,25.5,30.61,South,174,0.0,0.0,55,0.00,,,0.00,520,WeatherCatV1.14B232,2013-04-22 03:43:00,
2013-04-21 23:48:00,40.4,25.1,30.61,South,174,0.0,0.0,54,0.00,,,0.00,520,WeatherCatV1.14B232,2013-04-22 03:48:00,
2013-04-21 23:53:00,40.3,25.9,30.61,South,174,0.0,0.0,56,0.00,,,0.00,520,WeatherCatV1.14B232,2013-04-22 03:53:00,
2013-04-21 23:58:00,40.2,25.3,30.61,South,175,0.0,0.0,55,0.00,,,0.00,520,WeatherCatV1.14B232,2013-04-22 03:58:00,